Location: Rounton
(54.4000°N, 1.3500°W)
Time: 09:35:27
(UTC+00:00)

Tiros 1 - Visible Passes

Search period start: 25 February 2024 00:00
Search period end: 06 March 2024 00:00
Orbit: 625 x 658 km, 48.4° (Epoch: 24 February)

Date Brightness Start Highest point End Pass type
(mag) Time Alt. Az. Time Alt. Az. Time Alt. Az.
27 Feb 9.4 19:36:11 10° SSE 19:36:23 10° SSE 19:36:23 10° SSE visible
28 Feb 9.0 19:58:29 10° SSW 20:00:14 17° S 20:00:14 17° S visible
29 Feb 9.2 18:43:23 10° SSE 18:44:51 11° SE 18:46:18 10° ESE visible
29 Feb 8.8 20:21:44 10° SW 20:23:57 22° SSW 20:23:57 22° SSW visible
01 Mar 8.8 19:05:15 10° SSW 19:08:33 19° SSE 19:09:59 17° SE visible
01 Mar 8.9 20:45:26 10° SW 20:47:33 23° SW 20:47:33 23° SW visible
02 Mar 8.3 19:28:24 10° SW 19:32:24 27° SSE 19:33:30 25° SE visible
02 Mar 9.2 21:09:21 10° WSW 21:11:04 20° SW 21:11:04 20° SW visible
03 Mar 7.9 19:52:01 10° SW 19:56:22 35° SSE 19:56:56 34° SSE visible
03 Mar 9.5 21:33:26 10° WSW 21:34:29 16° WSW 21:34:29 16° WSW visible
04 Mar 8.5 18:35:04 10° SSW 18:38:58 26° SSE 18:42:44 11° ESE visible
04 Mar 7.8 20:15:55 10° WSW 20:20:18 40° S 20:20:18 40° S visible
04 Mar 9.9 21:57:36 10° W 21:57:51 11° WSW 21:57:51 11° WSW visible
05 Mar 8.1 18:58:37 10° SW 19:02:54 34° SSE 19:06:04 16° ESE visible
05 Mar 8.1 20:39:57 10° WSW 20:43:36 37° SSW 20:43:36 37° SSW visible
